This is the latest recevied weather packets stored in our database for station/object OE2ATN. If no packets are shown the sender has not sent any weather packets the latest 1 day(s).
| Time | Temp. | Humidity | Pressure | Rain* | Wind** | Luminosity | Snow |
|---|---|---|---|---|---|---|---|
| 1778007606 | 13.33° C | 62% | 1014.9 hPa | 0 mm | 0 m/s | - | - |
| 1778007306 | 13.33° C | 62% | 1015 hPa | 0 mm | 0.89 m/s, 306° | - | - |
| 1778007005 | 13.89° C | 60% | 1014.8 hPa | 0 mm | 0.89 m/s, 290° | - | - |
| 1778006706 | 13.89° C | 60% | 1014.8 hPa | 0 mm | 0 m/s | - | - |
| 1778006406 | 13.89° C | 61% | 1014.7 hPa | 0 mm | 0.45 m/s, 309° | - | - |
| 1778006106 | 13.89° C | 62% | 1014.6 hPa | 0 mm | 0.45 m/s, 6° | - | - |
| 1778005805 | 13.89° C | 60% | 1014.5 hPa | 0 mm | 0.89 m/s, 283° | - | - |
| 1778005505 | 14.44° C | 57% | 1014.7 hPa | 0 mm | 0.45 m/s, 276° | - | - |
| 1778005205 | 14.44° C | 59% | 1014.5 hPa | 0 mm | 0 m/s | - | - |
| 1778004904 | 15.56° C | 56% | 1014.4 hPa | 0 mm | 0.45 m/s, 296° | - | - |
| 1778004605 | 15.56° C | 55% | 1014.4 hPa | 0 mm | 0.45 m/s, 307° | - | - |
| 1778004305 | 15.56° C | 54% | 1014.3 hPa | 0 mm | 0.45 m/s, 309° | - | - |
| 1778004008 | 16.11° C | 53% | 1014.3 hPa | 0 mm | 0.45 m/s, 305° | - | - |
| 1778003704 | 16.11° C | 53% | 1014.3 hPa | 0 mm | 0.89 m/s, 302° | - | - |
| 1778003404 | 16.67° C | 52% | 1014.3 hPa | 0 mm | 0.45 m/s, 302° | - | - |
| 1778003104 | 16.67° C | 51% | 1014.3 hPa | 0 mm | 0 m/s | - | - |
| 1778002804 | 17.22° C | 50% | 1014.2 hPa | 0 mm | 0.45 m/s, 274° | - | - |
| 1778002503 | 17.22° C | 50% | 1014 hPa | 0 mm | 0 m/s | - | - |
| 1778002203 | 17.78° C | 49% | 1014.2 hPa | 0 mm | 0.45 m/s, 34° | - | - |
| 1778001904 | 17.78° C | 49% | 1014.3 hPa | 0 mm | 0.45 m/s, 324° | - | - |
| 1778001603 | 18.33° C | 46% | 1014 hPa | 0 mm | 0.89 m/s, 300° | - | - |
| 1778001304 | 18.89° C | 46% | 1014 hPa | 0 mm | 0.89 m/s, 305° | - | - |
| 1778001004 | 19.44° C | 46% | 1014.3 hPa | 0 mm | 0.45 m/s, 299° | - | - |
| 1778000703 | 19.44° C | 45% | 1014.2 hPa | 0 mm | 0 m/s | - | - |
| 1778000403 | 18.89° C | 45% | 1014.2 hPa | 0 mm | 0.45 m/s, 97° | - | - |
* Rain latest hour (hover to see other rain measurements)
** Current wind speed in m/s (hover to see current wind gust speed)